Location: Domont
(49.0278°N, 2.3264°E)
Time: 13:31:57
(UTC+00:00)

Envisat - Pass Details

Date: 03 February 2022
Orbit: 764 x 765 km, 98.2° (Epoch: 17 May)

Event Time Altitude Azimuth Distance (km) Brightness Sun altitude
Rises 04:19:26 0° 18° (NNE) 3,244 6.6 -29.5°
Reaches altitude 10° 04:21:51 10° 25° (NNE) 2,313 5.8 -29.1°
Maximum altitude 04:26:45 46° 98° (E) 1,023 3.9 -28.3°
Drops below altitude 10° 04:31:37 10° 172° (S) 2,298 5.5 -27.6°
Sets 04:34:00 0° 178° (S) 3,219 6.2 -27.2°
